Skip Page Navigation
NASA JPL Caltech
NASA Logo - Jet Propulsion Laboratory + View the NASA Portal
+ Center for Near-Earth Object Studies
JPL Home Earth Solar System Stars & Galaxies Technology
JPL Solar System Dynamics
BODIES ORBITS EPHEMERIDES TOOLS PHYSICAL DATA DISCOVERY FAQ SITE MAP
IMPORTANT: The SSD Announcement email list is now available. Major changes are coming in the near future, including possible hostname and/or URL changes. To be notified of such changes, subscribe to this email list.

Please visit this page for more details.


JPL Small-Body Database Browser
Search: [ help ]  
193336 (2000 TB67)
Classification: Main-belt Asteroid          SPK-ID: 2193336
Ephemeris | Orbit Diagram | Orbital Elements | Mission Design | Physical Parameters | Discovery Circumstances | Close-Approach Data ]

[ show orbit diagram ]
Orbital Elements at Epoch 2458600.5 (2019-Apr-27.0) TDB
Reference: JPL 8 (heliocentric ecliptic J2000)
 Element Value Uncertainty (1-sigma)   Units 
e .1952305267379982 7.037e-08  
a 2.473092839572293 2.7598e-08 au
q 1.990269621830623 1.8442e-07 au
i 3.690062389508064 7.3294e-06 deg
node 135.6110938236087 0.000143 deg
peri 214.8178417512043 0.00014544 deg
M 291.0398480224736 3.5785e-05 deg
tp 2458872.616430892322
(2020-Jan-24.11643089)
0.00014459 TDB
period 1420.558283473055
3.89
2.3779e-05
6.51e-08
d
yr
n .2534214922318099 4.242e-09 deg/d
Q 2.955916057313963 3.2986e-08 au
  Orbit Determination Parameters
   # obs. used (total)      124  
   data-arc span      7357 days (20.14 yr)  
   first obs. used      1998-01-26  
   last obs. used      2018-03-19  
   planetary ephem.      DE431  
   SB-pert. ephem.      SB431-N16  
   condition code      0  
   norm. resid. RMS      .74295  
   source      ORB  
   producer      Otto Matic  
   solution date      2019-Jul-13 13:56:09  

Additional Information
 Earth MOID = .984554 au 
 Jupiter MOID = 2.46848 au 
 T_jup = 3.453 
[ show covariance matrix ]

Ephemeris | Orbit Diagram | Orbital Elements | Mission Design | Physical Parameters | Discovery Circumstances | Close-Approach Data ]

Physical Parameter Table
Parameter Symbol Value Units Sigma Reference Notes
absolute magnitude H 17.2   n/a MPO440066  

193336 (2000 TB67)          Discovered 2000-Oct-02 by LINEAR at Socorro
Reference: 20081113/Numbers.arcLast Updated: 2008-11-17

[ show close-approach data ]
Alternate Designations
 2000 TB67 = 2004 TE170 
Ephemeris | Orbit Diagram | Orbital Elements | Mission Design | Physical Parameters | Discovery Circumstances | Close-Approach Data ]
ABOUT SSD CREDITS/AWARDS PRIVACY/COPYRIGHT GLOSSARY LINKS
FirstGov 2019-Oct-15 00:11 UT
(server date/time)  
NASA Home Page
Site Manager:   Ryan S. Park
Webmaster  Alan B. Chamberlin